TimeMST,TemperatureF,Dew PointF,Humidity,Sea Level PressureIn,VisibilityMPH,Wind Direction,Wind SpeedMPH,Gust SpeedMPH,PrecipitationIn,Events,Conditions,WindDirDegrees,DateUTC
12:15 AM,35.6,21.2,56,30.32,10.0,ESE,5.8,-,N/A,,Overcast,120,2013-02-28 07:15:00
12:35 AM,33.8,21.2,60,30.32,10.0,ESE,8.1,-,N/A,,Scattered Clouds,120,2013-02-28 07:35:00
12:55 AM,33.8,21.2,60,30.32,10.0,SSE,4.6,-,N/A,,Clear,160,2013-02-28 07:55:00
1:15 AM,35.6,21.2,56,30.32,10.0,SW,3.5,-,N/A,,Clear,230,2013-02-28 08:15:00
1:35 AM,35.6,21.2,56,30.33,10.0,Calm,Calm,-,N/A,,Mostly Cloudy,0,2013-02-28 08:35:00
1:55 AM,33.8,21.2,60,30.32,10.0,South,4.6,-,N/A,,Mostly Cloudy,190,2013-02-28 08:55:00
2:15 AM,33.8,19.4,56,30.33,10.0,SSE,3.5,-,N/A,,Overcast,160,2013-02-28 09:15:00
2:55 AM,35.6,21.2,56,30.33,10.0,South,4.6,-,N/A,,Overcast,190,2013-02-28 09:55:00
3:35 AM,35.6,19.4,52,30.34,10.0,South,9.2,-,N/A,,Overcast,170,2013-02-28 10:35:00
3:55 AM,35.6,19.4,52,30.34,10.0,SSE,9.2,-,N/A,,Overcast,150,2013-02-28 10:55:00
4:15 AM,35.6,19.4,52,30.34,10.0,South,8.1,-,N/A,,Overcast,180,2013-02-28 11:15:00
4:35 AM,35.6,19.4,52,30.34,10.0,SE,6.9,-,N/A,,Overcast,140,2013-02-28 11:35:00
4:55 AM,35.6,19.4,52,30.34,10.0,South,4.6,-,N/A,,Overcast,180,2013-02-28 11:55:00
5:15 AM,35.6,21.2,56,30.35,10.0,SSW,3.5,-,N/A,,Overcast,210,2013-02-28 12:15:00
5:35 AM,33.8,19.4,56,30.35,10.0,South,5.8,-,N/A,,Overcast,170,2013-02-28 12:35:00
5:55 AM,33.8,21.2,60,30.36,10.0,South,6.9,-,N/A,,Overcast,180,2013-02-28 12:55:00
6:15 AM,33.8,21.2,60,30.36,10.0,SSW,4.6,-,N/A,,Overcast,200,2013-02-28 13:15:00
6:35 AM,33.8,19.4,56,30.36,10.0,South,8.1,-,N/A,,Overcast,180,2013-02-28 13:35:00
6:55 AM,35.6,21.2,56,30.36,10.0,South,8.1,-,N/A,,Overcast,170,2013-02-28 13:55:00
7:15 AM,35.6,21.2,56,30.36,10.0,South,6.9,-,N/A,,Overcast,180,2013-02-28 14:15:00
7:35 AM,33.8,21.2,60,30.36,10.0,SE,6.9,-,N/A,,Mostly Cloudy,140,2013-02-28 14:35:00
7:55 AM,35.6,19.4,52,30.36,10.0,SE,11.5,-,N/A,,Mostly Cloudy,130,2013-02-28 14:55:00
8:15 AM,35.6,21.2,56,30.38,10.0,SSE,6.9,-,N/A,,Mostly Cloudy,150,2013-02-28 15:15:00
8:35 AM,35.6,21.2,56,30.39,10.0,SSE,5.8,-,N/A,,Overcast,160,2013-02-28 15:35:00
8:55 AM,35.6,21.2,56,30.39,10.0,SSE,9.2,-,N/A,,Overcast,150,2013-02-28 15:55:00
9:35 AM,37.4,21.2,52,30.41,10.0,SE,13.8,-,N/A,,Overcast,140,2013-02-28 16:35:00
9:55 AM,37.4,21.2,52,30.40,10.0,SE,10.4,-,N/A,,Mostly Cloudy,130,2013-02-28 16:55:00
10:15 AM,39.2,21.2,49,30.40,10.0,SE,12.7,-,N/A,,Clear,140,2013-02-28 17:15:00
10:35 AM,41.0,21.2,45,30.40,10.0,SE,10.4,-,N/A,,Mostly Cloudy,140,2013-02-28 17:35:00
10:55 AM,42.8,23.0,46,30.40,10.0,South,5.8,-,N/A,,Overcast,170,2013-02-28 17:55:00
11:15 AM,42.8,24.8,49,30.41,10.0,SE,3.5,-,N/A,,Overcast,130,2013-02-28 18:15:00
11:35 AM,44.6,24.8,46,30.41,10.0,SSE,9.2,-,N/A,,Overcast,150,2013-02-28 18:35:00
11:55 AM,44.6,24.8,46,30.41,10.0,SSE,5.8,-,N/A,,Overcast,160,2013-02-28 18:55:00
12:15 PM,44.6,26.6,49,30.41,10.0,SE,4.6,-,N/A,,Overcast,130,2013-02-28 19:15:00
12:35 PM,44.6,28.4,53,30.41,10.0,Calm,Calm,-,N/A,,Overcast,0,2013-02-28 19:35:00
12:55 PM,44.6,30.2,57,30.41,10.0,Calm,Calm,-,N/A,,Overcast,0,2013-02-28 19:55:00
1:15 PM,44.6,30.2,57,30.41,10.0,Calm,Calm,-,0.01,,Overcast,0,2013-02-28 20:15:00
1:35 PM,44.6,30.2,57,30.41,10.0,Calm,Calm,-,0.01,,Overcast,0,2013-02-28 20:35:00
1:55 PM,44.6,30.2,57,30.41,10.0,Calm,Calm,-,0.01,,Overcast,0,2013-02-28 20:55:00
2:15 PM,44.6,32.0,61,30.40,10.0,ENE,3.5,-,N/A,,Overcast,70,2013-02-28 21:15:00
2:35 PM,44.6,33.8,66,30.39,10.0,ENE,8.1,-,N/A,,Overcast,60,2013-02-28 21:35:00
2:55 PM,44.6,33.8,66,30.38,10.0,ENE,8.1,-,N/A,,Overcast,70,2013-02-28 21:55:00
3:15 PM,44.6,33.8,66,30.38,10.0,East,5.8,-,N/A,,Overcast,100,2013-02-28 22:15:00
3:35 PM,44.6,33.8,66,30.39,10.0,East,6.9,-,N/A,,Overcast,90,2013-02-28 22:35:00
3:55 PM,46.4,33.8,62,30.39,10.0,ESE,8.1,-,N/A,,Overcast,110,2013-02-28 22:55:00
4:15 PM,46.4,35.6,66,30.39,10.0,NE,6.9,-,N/A,,Overcast,40,2013-02-28 23:15:00
4:35 PM,44.6,35.6,71,30.40,10.0,NNE,6.9,-,N/A,,Overcast,20,2013-02-28 23:35:00
4:55 PM,44.6,35.6,71,30.40,10.0,NNE,8.1,-,N/A,,Overcast,20,2013-02-28 23:55:00
5:15 PM,44.6,35.6,71,30.41,10.0,NE,9.2,-,N/A,,Overcast,40,2013-03-01 00:15:00
5:35 PM,44.6,35.6,71,30.41,10.0,NE,5.8,-,N/A,,Overcast,40,2013-03-01 00:35:00
5:55 PM,44.6,37.4,76,30.42,10.0,North,4.6,-,N/A,,Overcast,10,2013-03-01 00:55:00
6:15 PM,42.8,35.6,76,30.42,10.0,NNE,3.5,-,N/A,,Overcast,30,2013-03-01 01:15:00
6:35 PM,42.8,37.4,81,30.43,10.0,NW,4.6,-,0.01,,Overcast,320,2013-03-01 01:35:00
6:55 PM,42.8,35.6,76,30.43,10.0,NW,3.5,-,0.01,,Overcast,320,2013-03-01 01:55:00
7:15 PM,41.0,35.6,81,30.43,10.0,NW,5.8,-,N/A,,Overcast,310,2013-03-01 02:15:00
7:35 PM,41.0,35.6,81,30.45,10.0,NW,5.8,-,0.01,,Overcast,310,2013-03-01 02:35:00
7:55 PM,39.2,35.6,87,30.45,4.0,West,8.1,-,0.01,,Overcast,280,2013-03-01 02:55:00
8:15 PM,39.2,33.8,81,30.45,2.5,West,6.9,-,N/A,,Overcast,280,2013-03-01 03:15:00
8:35 PM,39.2,33.8,81,30.47,3.0,West,6.9,-,N/A,,Overcast,280,2013-03-01 03:35:00
9:15 PM,37.4,33.8,87,30.47,5.0,West,4.6,-,N/A,,Overcast,270,2013-03-01 04:15:00
9:35 PM,37.4,32.0,81,30.48,3.0,West,5.8,-,N/A,,Overcast,270,2013-03-01 04:35:00
9:55 PM,35.6,32.0,87,30.48,4.0,West,5.8,-,N/A,,Overcast,270,2013-03-01 04:55:00
10:35 PM,35.6,32.0,87,30.49,5.0,West,4.6,-,N/A,,Overcast,260,2013-03-01 05:35:00
10:55 PM,35.6,32.0,87,30.50,5.0,WNW,4.6,-,N/A,,Overcast,290,2013-03-01 05:55:00
11:15 PM,35.6,32.0,87,30.50,5.0,WNW,4.6,-,N/A,,Overcast,290,2013-03-01 06:15:00
11:35 PM,35.6,32.0,87,30.50,4.0,West,4.6,-,N/A,,Mostly Cloudy,260,2013-03-01 06:35:00